Regional Weather Roundup
Issued by NWS

Home | Current Version | Previous Version | Graphics & Text | Print | Product List | Glossary Off
Versions: 1 2 3 4 5 6 7 8 9 10 11 12 13 14 15 16 17 18 19 20 21 22 23 24 25 26 27 28 29 30 31 32 33 34 35 36 37 38 39 40 41 42 43 44 45 46 47 48 49 50

000
ASUS43 KTOP 020208
RWRKS

WEATHER ROUNDUP FOR KANSAS
NATIONAL WEATHER SERVICE GOODLAND KS
800 PM CST SUN FEB 01 2015

NOTE:  "FAIR" INDICATES FEW OR NO CLOUDS BELOW 12,000 FEET WITH NO
SIGNIFICANT WEATHER AND/OR OBSTRUCTIONS TO VISIBILITY.

KSZ001>006-013>018-027>032-041>047-020300-
NORTHWEST KANSAS

CITY           SKY/WX    TMP DP  RH WIND       PRES   REMARKS
GOODLAND       CLEAR      9   4  80 N8        30.26R
HAYS           CLEAR     12  -2  52 N22G30    30.33R WCI  -7
HILL CITY      CLEAR     11   3  70 N8        30.35R
RUSSELL        PTCLDY    12   6  77 N23       30.32R WCI  -7
$$

KSZ061>065-074>080-084>089-020300-
SOUTHWEST KANSAS

CITY           SKY/WX    TMP DP  RH WIND       PRES   REMARKS
DODGE CITY     CLEAR     15   5  64 N15G23    30.30R WCI   0
ELKHART          N/A     21  12  68 NE8         N/A
GARDEN CITY    CLEAR     15   5  64 N21       30.31R WCI  -2
LIBERAL        FAIR      19   7  58 N18       30.31R WCI   4
PRATT          PTCLDY    18  10  73 N24G31    30.30R WCI   0
$$

KSZ066>073-081>083-090>101-020300-
SOUTHEAST KANSAS

CITY           SKY/WX    TMP DP  RH WIND       PRES   REMARKS
CHANUTE        CLOUDY    16   8  71 NW16G28   30.22R WCI   1
COFFEYVILLE    CLOUDY    19  10  68 NW20      30.24R WCI   3
HUTCHINSON     FLURRIES  16   7  67 NW18G32   30.30R WCI   0
MEDICINE LODGE   N/A     19   8  62 N25G36    30.30R WCI   1
NEWTON         PTCLDY    12   3  67 N22G32    30.27R WCI  -7
PARSONS        CLOUDY    18   9  68 NW23G31   30.24R WCI   0
WICHITA INTL   FLURRIES  16   7  67 N30G37    30.28R WCI  -4
WICHITA JABRA  MOCLDY    14  11  87 N21G33    30.28R WCI  -4
WICHITA MCCONL FLURRIES  16   7  67 N21G33    30.27R WCI  -2
WINFIELD       MOCLDY    18   7  62 N24G37    30.29R WCI   0
$$

KSZ007>012-019>026-033>040-048>060-102>105-020300-
NORTHEAST KANSAS

CITY           SKY/WX    TMP DP  RH WIND       PRES   REMARKS
CONCORDIA      PTCLDY     8   2  76 N17G26    30.33R WCI -10
EMPORIA        CLOUDY    11   5  77 NW28G35   30.24R WCI -10
LAWRENCE       LGT SNOW  14   9  80 NW18G29   30.21R WCI  -3
MANHATTAN      FLURRIES  10   4  76 N10G20    30.32R WCI  -4
MARYSVILLE     LGT SNOW   9   3  78 N18       30.29R WCI -10
OLATHE IND     LGT SNOW  15  10  80 NW24G32   30.16R WCI  -4
OLATHE EXE     LGT SNOW  16  12  84 NW15G26   30.13R FOG     WCI   1
SALINA         FLURRIES  13   6  74 N23       30.35R WCI  -6
TOPEKA BILLARD FLURRIES  13   6  74 NW20G31   30.25R WCI  -5
TOPEKA FORBES  FLURRIES  14   7  73 NW22G30   30.22R WCI  -4
$$


USA.gov is the U.S. government's official web portal to all federal, state and local government web resources and services.